Hourly Weather Valley of Peace

Today, 16 April, Friday

Time Temperature Precipitation Wind Pressure Humidity
00:00 +23°C° 0 mm 1 mps 751 mmHg 98%
01:00 +23°C° 0 mm 1 mps 751 mmHg 97%
02:00 +23°C° 0 mm 1 mps 750 mmHg 97%
03:00 +23°C° 0 mm 1 mps 750 mmHg 96%
04:00 +24°C° 0 mm 1 mps 750 mmHg 94%
05:00 +24°C° 0 mm 1 mps 750 mmHg 93%
06:00 +25°C° 0 mm 1 mps 750 mmHg 92%
07:00 +27°C° 0 mm 1 mps 750 mmHg 84%
08:00 +29°C° 0 mm 2 mps 751 mmHg 75%
09:00 +30°C° 0 mm 2 mps 751 mmHg 67%
10:00 +32°C° 0 mm 2 mps 750 mmHg 60%
11:00 +35°C° 0 mm 3 mps 750 mmHg 53%
12:00 +36°C° 0 mm 3 mps 749 mmHg 47%
13:00 +37°C° 0 mm 3 mps 748 mmHg 44%
14:00 +37°C° 0 mm 3 mps 748 mmHg 42%
15:00 +38°C° 0 mm 3 mps 747 mmHg 39%
16:00 +36°C° 0 mm 3 mps 747 mmHg 49%
17:00 +33°C° 0 mm 3 mps 748 mmHg 59%
18:00 +30°C° 0 mm 3 mps 748 mmHg 69%
19:00 +28°C° 0 mm 2 mps 748 mmHg 78%
20:00 +26°C° 0 mm 2 mps 749 mmHg 87%
21:00 +25°C° 0 mm 1 mps 750 mmHg 96%
22:00 +25°C° 0 mm 1 mps 749 mmHg 97%
23:00 +25°C° 0 mm 1 mps 749 mmHg 97%

Tomorrow, 17 April, Saturday

Time Temperature Precipitation Wind Pressure Humidity
00:00 +24°C° 0 mm 1 mps 749 mmHg 98%
01:00 +25°C° 0 mm 1 mps 749 mmHg 98%
02:00 +25°C° 0 mm 1 mps 749 mmHg 97%
03:00 +25°C° 0 mm 1 mps 748 mmHg 97%
04:00 +25°C° 0 mm 1 mps 748 mmHg 96%
05:00 +23°C° 0 mm 0 mps 749 mmHg 95%
06:00 +24°C° 0 mm 0 mps 749 mmHg 94%
07:00 +28°C° 0 mm 1 mps 749 mmHg 81%
08:00 +31°C° 0 mm 1 mps 749 mmHg 67%
09:00 +35°C° 0 mm 2 mps 750 mmHg 54%
10:00 +37°C° 0 mm 2 mps 749 mmHg 47%
11:00 +39°C° 0 mm 2 mps 748 mmHg 41%
12:00 +41°C° 0 mm 2 mps 748 mmHg 34%
13:00 +42°C° 0 mm 3 mps 747 mmHg 35%
14:00 +42°C° 0 mm 4 mps 747 mmHg 35%
15:00 +42°C° 0 mm 4 mps 746 mmHg 36%
16:00 +38°C° 0 mm 4 mps 746 mmHg 48%
17:00 +35°C° 0 mm 3 mps 747 mmHg 61%
18:00 +31°C° 0 mm 3 mps 747 mmHg 73%
19:00 +30°C° 0 mm 3 mps 748 mmHg 78%
20:00 +29°C° 0 mm 2 mps 749 mmHg 82%
21:00 +28°C° 0 mm 2 mps 749 mmHg 87%
22:00 +27°C° 0 mm 1 mps 749 mmHg 90%
23:00 +27°C° 0 mm 1 mps 750 mmHg 93%

Day after tomorrow, 18 April, Sunday

Time Temperature Precipitation Wind Pressure Humidity
00:00 +25°C° 0 mm 0 mps 750 mmHg 96%
01:00 +25°C° 0.1 mm 0 mps 750 mmHg 96%
02:00 +25°C° 0.1 mm 0 mps 749 mmHg 96%
03:00 +25°C° 0.1 mm 0 mps 749 mmHg 97%
04:00 +24°C° 0.3 mm 0 mps 749 mmHg 96%
05:00 +24°C° 0.3 mm 0 mps 750 mmHg 96%
06:00 +24°C° 0.3 mm 0 mps 750 mmHg 96%
07:00 +28°C° 0.1 mm 1 mps 751 mmHg 90%
08:00 +29°C° 0.1 mm 1 mps 751 mmHg 84%
09:00 +30°C° 0.1 mm 1 mps 752 mmHg 78%
10:00 +31°C° 0.1 mm 1 mps 751 mmHg 71%
11:00 +33°C° 0.1 mm 1 mps 751 mmHg 63%
12:00 +35°C° 0.1 mm 1 mps 750 mmHg 56%
13:00 +35°C° 0.1 mm 1 mps 749 mmHg 53%
14:00 +37°C° 0.1 mm 2 mps 749 mmHg 49%
15:00 +37°C° 0.1 mm 2 mps 748 mmHg 46%
16:00 +34°C° 4.1 mm 2 mps 748 mmHg 62%
17:00 +29°C° 4.1 mm 2 mps 748 mmHg 78%
18:00 +26°C° 4.1 mm 2 mps 749 mmHg 94%
19:00 +25°C° 2.3 mm 2 mps 750 mmHg 95%
20:00 +24°C° 2.3 mm 1 mps 751 mmHg 96%
21:00 +24°C° 2.3 mm 1 mps 752 mmHg 98%
22:00 +24°C° 0.5 mm 1 mps 752 mmHg 98%
23:00 +24°C° 0.5 mm 1 mps 752 mmHg 98%

19 April, Monday

Time Temperature Precipitation Wind Pressure Humidity
00:00 +24°C° 0.5 mm 1 mps 752 mmHg 98%
01:00 +24°C° 0.1 mm 1 mps 752 mmHg 98%
02:00 +23°C° 0.1 mm 1 mps 751 mmHg 99%
03:00 +23°C° 0.1 mm 1 mps 751 mmHg 99%
04:00 +23°C° 0 mm 1 mps 751 mmHg 99%
05:00 +23°C° 0 mm 1 mps 752 mmHg 98%
06:00 +23°C° 0 mm 1 mps 752 mmHg 98%
07:00 +25°C° 0 mm 1 mps 752 mmHg 86%
08:00 +28°C° 0 mm 1 mps 753 mmHg 74%
09:00 +30°C° 0 mm 1 mps 753 mmHg 62%
10:00 +32°C° 0 mm 1 mps 752 mmHg 56%
11:00 +34°C° 0 mm 1 mps 752 mmHg 50%
12:00 +37°C° 0 mm 1 mps 751 mmHg 43%
13:00 +34°C° 0.1 mm 0 mps 750 mmHg 45%
14:00 +33°C° 0.1 mm 0 mps 750 mmHg 47%
15:00 +33°C° 0.1 mm 0 mps 749 mmHg 49%
16:00 +33°C° 0 mm 1 mps 749 mmHg 55%
17:00 +32°C° 0 mm 1 mps 749 mmHg 61%
18:00 +30°C° 0 mm 1 mps 749 mmHg 68%
19:00 +29°C° 0.1 mm 1 mps 750 mmHg 76%
20:00 +27°C° 0.1 mm 1 mps 750 mmHg 84%
21:00 +26°C° 0.1 mm 1 mps 751 mmHg 92%
22:00 +25°C° 0.3 mm 1 mps 751 mmHg 94%
23:00 +23°C° 0.3 mm 0 mps 751 mmHg 95%

20 April, Tuesday

Time Temperature Precipitation Wind Pressure Humidity
00:00 +22°C° 0.3 mm 0 mps 751 mmHg 96%
01:00 +22°C° 0.1 mm 0 mps 751 mmHg 97%
02:00 +22°C° 0.1 mm 0 mps 751 mmHg 97%
03:00 +22°C° 0.1 mm 0 mps 750 mmHg 97%
04:00 +22°C° 0 mm 0 mps 751 mmHg 96%
05:00 +22°C° 0 mm 0 mps 751 mmHg 96%
06:00 +22°C° 0 mm 0 mps 751 mmHg 95%
07:00 +25°C° 0 mm 0 mps 752 mmHg 84%
08:00 +29°C° 0 mm 1 mps 752 mmHg 72%
09:00 +32°C° 0 mm 1 mps 752 mmHg 60%
10:00 +34°C° 0 mm 1 mps 752 mmHg 53%
11:00 +36°C° 0 mm 1 mps 751 mmHg 47%
12:00 +38°C° 0 mm 2 mps 751 mmHg 40%
13:00 +38°C° 0 mm 2 mps 750 mmHg 42%
14:00 +37°C° 0 mm 3 mps 749 mmHg 44%
15:00 +37°C° 0 mm 3 mps 749 mmHg 47%
16:00 +35°C° 0 mm 3 mps 749 mmHg 57%
17:00 +33°C° 0 mm 3 mps 749 mmHg 67%
18:00 +30°C° 0 mm 3 mps 750 mmHg 77%
19:00 +29°C° 0.1 mm 2 mps 750 mmHg 82%
20:00 +28°C° 0.1 mm 2 mps 751 mmHg 87%
21:00 +27°C° 0.1 mm 2 mps 752 mmHg 93%
22:00 +26°C° 0 mm 1 mps 752 mmHg 95%
23:00 +26°C° 0 mm 1 mps 752 mmHg 96%

21 April, Wednesday

Time Temperature Precipitation Wind Pressure Humidity
00:00 +24°C° 0 mm 0 mps 752 mmHg 98%
01:00 +24°C° 0.1 mm 0 mps 752 mmHg 98%
02:00 +24°C° 0.1 mm 0 mps 752 mmHg 98%
03:00 +24°C° 0.1 mm 0 mps 751 mmHg 98%
04:00 +24°C° 0.1 mm 0 mps 752 mmHg 98%
05:00 +24°C° 0.1 mm 0 mps 752 mmHg 97%
06:00 +24°C° 0.1 mm 0 mps 752 mmHg 97%
07:00 +25°C° 0.6 mm 0 mps 753 mmHg 93%
08:00 +26°C° 0.6 mm 0 mps 753 mmHg 88%
09:00 +29°C° 0.6 mm 1 mps 753 mmHg 84%
10:00 +29°C° 1.6 mm 1 mps 753 mmHg 85%
11:00 +30°C° 1.6 mm 1 mps 753 mmHg 85%
12:00 +30°C° 1.6 mm 1 mps 753 mmHg 86%
13:00 +30°C° 1.5 mm 1 mps 752 mmHg 87%
14:00 +29°C° 1.5 mm 2 mps 752 mmHg 88%
15:00 +29°C° 1.5 mm 2 mps 751 mmHg 89%
16:00 +28°C° 0.7 mm 2 mps 752 mmHg 91%
17:00 +27°C° 0.7 mm 2 mps 752 mmHg 93%
18:00 +27°C° 0.7 mm 2 mps 752 mmHg 96%
19:00 +26°C° 0.4 mm 1 mps 752 mmHg 96%
20:00 +26°C° 0.4 mm 1 mps 753 mmHg 97%
21:00 +25°C° 0.4 mm 1 mps 754 mmHg 98%
22:00 +25°C° 0.1 mm 1 mps 754 mmHg 98%
23:00 +25°C° 0.1 mm 1 mps 753 mmHg 98%
Show more